National Oceanic Atmosphere Administration National Weather Service Headquarters National Weather Service Headquarters
NOAA logo WFO Anchorage Scalable transition graphic NWS logo
Transition from title bar to navgation bar   Aviation Weather 08 AKST 
blankspace Home   |   Mobile   |   Social Media   |   Mesonet   |   Surface Map   |   Radar   |   Submit Storm Reports   |   News =17 GMT 

LocalForecast by City, St or Zip Code

spacer

Forecasts/Products
  Public
  Forecast Discussion
    - With Glossary
  Aviation
  Marine
  Hydrology(RFC)
  Rivers & Lakes AHPS
  Ice Desk
  TV Weather
  Fire Weather
  Avalanche
  Travel 511
  Graphical
  xml logo RSS Feeds
  Marine FTPMail

spacer

Data
  Mesonet
  Model Graphics
  Local Model
  Observations
  Marine Obs
  Satellite/Radar
  Vent Factor
  Soaring Index
  Weather Links

spacer

Climate
  PAFC Climate
  Interactive Climate
  PAFC Records
  Local
  National
  More

spacer

Outreach
  About Us
  Community Outreach
  Kids' Page
  Tour/Speaker Request
  Weather Classroom
  Social Media

spacer

Reports
  COOP Observers
  Local Storm Reports
  Spotter Page
  Submit a Storm Report

spacer

Miscellaneous
  Archived Alaska Weather Stories
  Student Career Opportunities
  Research Papers

spacer

Print Friendly/
Low Bandwidth

  Public Forecasts
  Marine Forecasts

spacer

Contact Us
  mailto pafcweb

spacer

Facebook Follow the National Weather Service in Alaska on Twitter
USA.gov is the U.S. government's official web portal to all federal, state and local government web resources and services.


 ICAO ID:   AAWU Graphics

Internet access to TAFs and METAR observations is for planning purposes only. We can not guarantee the timeliness of internet products. Before flying please get a formal pilot briefing (1-800-992-7433) and ALWAYS file a Flight Plan!Pilot briefings are provided to licensed aircraft pilots, ONLY! Others may not use the above number to obtain weather information.

Check out the Key to TAFs and METARs for help with decoding the information.

A 12 hour summary of TAFs can be found here.

PANC TAF
PANC 211556Z 2116/2218  VRB03KT P6SM -SHSN FEW015 SCT035 OVC060
     FM211900 VRB03KT P6SM -SHSN FEW015 SCT025 BKN035
     FM220100 VRB04KT 6SM -SHSN BR SCT015 BKN025 OVC035=


METAR PANC 211653Z 33004KT 10SM -SN FEW020 SCT045 OVC070 M04/M07
 A2913 RMK AO2 SNB1558 SLP868 P0000 T10391072=
METAR PANC 211553Z 34003KT 10SM SCT045 OVC055 M04/M07 A2910 RMK AO2
     SNE46 SLP857 P0000 T10441072=
METAR PANC 211553Z 34003KT 10SM SCT045 OVC055 M04/M07 A2910=
METAR PANC 211453Z 00000KT 10SM -SN SCT032 BKN055 OVC100 M04/M07 A2908
     RMK AO2 SLP851 P0000 60000 T10391067 51020=
METAR PANC 211453Z 00000KT 10SM -SN SCT032 BKN055 OVC100 M04/M07
     A2908=
METAR PANC 211353Z 00000KT 10SM -SN SCT055 OVC070 M04/M06 A2907 RMK
 AO2 SNE08B49 SLP845 P0000 T10391061=
METAR PANC 211353Z 00000KT 10SM -SN SCT055 OVC070 M04/M06 A2907=


National Weather Service
Anchorage Forecast Office
6930 Sand Lake Road
Anchorage, Ak 99502
(907) 266-5105 M-F/7-5pm
About Us
Career Opportunities
Glossary
Disclaimer
Privacy Policy
Credits
Alaska Weather Information Line:
1-800-472-0391